星链-36964(STARLINK-36964)

导读

STARLINK-36964(NORAD编号68184)是SpaceX星链(Starlink)星座中的一颗低轨互联网通信卫星,属于SpaceX大规模卫星互联网部署的组成部分。 星链星座旨在为全球提供高速低延迟宽带网络服务,该卫星配备相控阵天线与星间激光链路技术,可实现多用户同时通信与高效数据传输。2026年SpaceX启动降低4400颗星链卫星轨道高度计划,STARLINK-36964大概率包含在本次调轨任务中,降轨后可缩短故障卫星再入大气层时间,降低太空碰撞与碎片风险。

基本信息
目录编号:
68184
目录名称:
STARLINK-36964
国际标识:
2026-050T
轨道中心:
EARTH
卫星名称:
星链-36964
卫星全名:
星链-36964(STARLINK-36964)
卫星状态:
在轨 (已飞行175 天)
发射日期:
2026-03-14 UTC
国别 :
美国 (US)
星等 :
--
轨道信息
数据来源 国际轨道数据
星历时间: 2026-09-05T10:35:18+0800
10小时前
查看轨道信息
半长轴: 6840.849km
偏心率: 0.0001322
轨道倾角: 53.156°
近地点辐角 87.212°
升交点赤经 149.771°
平近点角 272.903°
近地点: 461.807km
远地点: 463.617km
周期: 93.848分钟
每日圈数: 15.343973
详细信息
固有亮度:
5
最大亮度:
2.5
卫星平台:
Starlink V1.0
覆盖范围:
全球
运营商:
太空探索技术公司
运营商所在国:
美国
制造商(研发单位):
太空探索技术公司
制造商所在国:
美国
使用方式:
暂无
卫星简介
Starlink 计划是 SpaceX 推出的全球卫星互联网项目,通过发射低轨道卫星,为全球尤其是偏远地区提供高速、低延迟的互联网服务。自 2019 年起,Starlink 已部署数千颗卫星,旨在缩小全球数字鸿沟,推动互联网普及。该项目还为军事、航空等行业提供通信支持,带来广泛经济效益。
2D轨道图
3D轨道图
轨道高度分析图
轨道倾角分析图
轨道综合分析图
查看轨道综合分析图
交会数据列表
事件ID 空间交会对象 最接近时刻(TCA) 交会距离 交会风险概率(CRP) 交会风险指数(CRI) 操作
CDM_260906-102404-750806-818424
HAWK-2B (47508)
2026-09-06T
10:24:13+0000
1.550 km
极远距离
5.880941E-6 低风险 0.5
CDM_260907-052606-670306-818421
2026-09-07T
05:26:09+0000
2.970 km
极远距离
1.353124E-6 低风险 0.38